GORIZONT 6 [-]

Last updated on Tue Jun 27 2023 00:02:59 GMT+0000 (Coordinated Universal Time)

1 13624U 82103A 23176.52351216 -.00000145 00000+0 00000+0 0 9993 2 13624 9.7081 310.6766 0001771 170.6710 242.3870 1.00379863110038

Satellite not in orbit

GORIZONT 6 [-]